#timestamp,LO_Frequency,Hit,StdDev 
1634832015.6,286047004.4,Y
1634832035.5,286047002.6,P
1634832055.3,286047002.7,P
1634832075.1,286047000.4,N
1634832095.9,286047000.2,N
1634832115.7,286046999.9,N
1634832135.5,286046999.9,N
1634832155.4,286046999.7,N
1634832175.2,286047002.8,N
1634832195.1,286047000.9,N
1634832196.0,286047000.9,N
1634832215.8,286047000.6,N
1634832235.6,286046998.6,N
1634832255.5,286046998.2,N
1634832275.3,286046998.6,N
1634832295.2,286047000.5,N
1634832315.9,286046998.6,N
1634832335.7,286047002.0,N
1634832355.6,286047002.7,N
1634832375.4,286047000.0,N
1634832395.2,286047000.0,N
1634832415.1,286047000.5,N
1634832416.0,286047000.5,N
1634832435.8,286047000.0,N
1634832455.7,286047001.1,N
1634832475.5,286047000.9,N
1634832495.3,286047000.8,N
1634832515.2,286047000.9,N
1634832535.0,286047000.6,N
1634832535.9,286047000.6,N
1634832555.8,286047000.8,N
1634832575.6,286046998.2,N
1634832595.4,286047000.8,N
1634832615.3,286047000.3,N
1634832635.1,286047000.9,N
1634832655.8,286047000.3,N
1634832675.7,286047000.3,N
1634832695.5,286047000.6,N
1634832715.4,286046999.8,N
1634832735.2,286047002.1,N
1634832755.0,286047001.8,N
1634832755.9,286047001.8,N
1634832775.8,286047001.3,N
1634832795.6,286047001.8,N
1634832815.4,286047001.9,N
1634832835.3,286047002.0,N
1634832855.1,286047000.2,N
1634832875.9,286047002.0,N
1634832895.7,286047002.1,N
1634832915.5,286046999.9,N
1634832935.4,286046999.8,N
1634832955.2,286047002.7,Y
1634832975.1,286046999.9,P
1634832976.0,286046999.9,N
1634832995.8,286046999.7,N
1634833015.6,286047000.4,N
1634833035.5,286047000.7,N
1634833055.3,286047000.8,N
1634833075.1,286046998.8,N
1634833095.9,286046998.6,N
1634833115.7,286046999.4,N
1634833135.6,286046998.4,N
1634833155.4,286046998.5,N
1634833175.2,286047001.2,N
1634833195.1,286047000.9,N
1634833196.0,286047000.9,N
1634833215.8,286046998.2,N
1634833235.6,286046998.4,N
1634833255.5,286046998.9,N
1634833275.3,286046998.3,N
1634833295.2,286047001.1,N
1634833315.9,286047001.1,N
1634833335.7,286046998.4,N
1634833355.6,286047000.8,N
1634833375.4,286047001.0,N
1634833395.2,286046998.3,N
1634833415.1,286047001.2,N
1634833416.0,286047001.2,N
1634833435.8,286046998.1,N
1634833455.7,286047001.2,N
1634833475.5,286047000.6,N
1634833495.3,286046998.1,N
1634833515.2,286046999.9,N
1634833535.0,286047000.9,N
1634833535.9,286047000.9,N
1634833555.8,286046998.2,N
1634833575.6,286046998.2,N
1634833595.4,286047000.7,N
1634833615.3,286047001.2,N
1634833635.1,286047000.5,N
1634833655.8,286047000.4,N
1634833675.7,286047000.4,N
1634833695.5,286047002.3,N
1634833715.4,286047002.4,N
1634833735.2,286047002.3,N
1634833755.0,286047001.3,N
1634833755.9,286047001.3,N
1634833775.8,286047002.1,N
1634833795.6,286047002.1,N
1634833815.5,286047000.6,N
1634833835.3,286047000.4,N
1634833855.1,286047001.9,N
1634833875.9,286047002.8,N
1634833895.7,286046999.8,N
1634833915.5,286047000.7,N
1634833935.4,286047000.1,N
1634833955.2,286047002.4,N
1634833975.1,286047002.1,N
1634833976.0,286047002.1,N
1634833995.8,286047002.1,N
1634834015.6,286047000.0,N
1634834035.5,286047000.9,N
1634834055.3,286046999.9,N
1634834075.1,286046998.7,N
1634834095.9,286047000.9,N
1634834115.7,286047000.4,N
1634834135.6,286046998.5,N
1634834155.4,286047000.6,N
1634834175.2,286047000.3,N
1634834195.1,286047000.6,N
1634834196.0,286047000.6,N
1634834215.8,286047000.8,N
1634834235.6,286047000.9,N
1634834255.5,286046998.3,N
1634834275.3,286046999.0,N
1634834295.2,286046999.5,N
1634834315.9,286047001.2,N
1634834335.7,286046998.1,N
1634834355.6,286047000.7,N
1634834375.4,286046998.2,N
1634834395.2,286046998.2,N
1634834415.1,286046998.9,N
1634834416.0,286046998.9,N
1634834435.8,286046998.2,N
1634834455.7,286047001.2,N
1634834475.5,286046998.8,N
1634834495.8,286046996.6,N
1634834515.6,286046996.9,N
1634834535.4,286046997.7,N
1634834555.3,286046998.0,N
1634834575.1,286046994.5,Y
1634834595.9,286046995.5,P
1634834615.7,286046995.2,N
1634834635.5,286046994.9,N
1634834655.4,286046995.3,N
1634834675.2,286046999.6,N
1634834695.0,286046997.9,N
1634834696.0,286046997.9,N
1634834715.8,286046997.7,N
1634834735.6,286046996.9,N
1634834755.5,286046997.1,N
1634834775.3,286046996.9,N
1634834795.1,286046999.5,N
1634834815.9,286046999.3,N
1634834835.7,286046999.2,N
1634834855.6,286046996.8,N
1634834875.4,286046996.7,N
1634834895.2,286046997.8,N
1634834915.1,286046997.2,N
1634834916.0,286046997.2,N
1634834935.8,286046997.2,N
1634834955.6,286046995.0,Y
1634834975.5,286047001.1,P
1634834995.3,286046998.5,N
1634835015.2,286046998.1,N
1634835035.9,286046998.7,N
1634835055.7,286046998.9,N
1634835075.3,286046998.9,N
1634835095.1,286046999.6,N
1634835096.0,286046999.6,N
1634835115.8,286046996.9,Y
1634835135.7,286047001.0,P
1634835155.5,286046999.4,N
1634835175.4,286046998.9,N
1634835195.2,286046999.1,N
1634835215.0,286046999.5,N
1634835215.9,286046999.5,N
1634835235.8,286046998.9,N
1634835255.6,286046999.0,N
1634835275.4,286046999.2,N
1634835295.3,286046996.8,Y
1634835315.1,286046996.8,P
1634835335.9,286046996.6,N
1634835355.7,286046998.6,N
1634835375.5,286046998.9,N
1634835395.4,286046999.1,N
1634835415.2,286046999.6,N
1634835435.0,286046996.9,N
1634835435.9,286046996.9,N
1634835455.8,286046996.5,N
1634835475.6,286046997.5,N
1634835495.5,286046997.7,N
1634835515.3,286046997.3,N
1634835535.1,286046999.3,N
1634835555.9,286046999.0,N
1634835575.7,286046998.8,N
1634835595.5,286046998.4,N
